Regional Weather Roundup
Issued by NWS

Home | Current Version | Previous Version | Text Only | Print | Product List | Glossary On
Versions: 1 2 3 4 5 6 7 8 9 10 11 12 13 14 15 16 17 18 19 20 21 22 23 24 25 26 27 28 29 30 31 32 33 34 35 36 37 38 39 40 41 42 43 44 45 46 47 48 49 50
000
ASUS43 KBIS 290702
RWRND

NORTH DAKOTA REGIONAL WEATHER ROUNDUP
NATIONAL WEATHER SERVICE BISMARCK ND
200 AM CDT SUN MAY 29 2016

NOTE: "FAIR" INDICATES FEW OR NO CLOUDS BELOW 12,000 FEET WITH NO
SIGNIFICANT WEATHER AND/OR OBSTRUCTIONS TO VISIBILITY.


NDZ001>003-009>011-017-290800-
NORTHWEST NORTH DAKOTA

CITY           SKY/WX    TMP DP  RH WIND       PRES   REMARKS
WILLISTON      CLEAR     48  47  96 SW5       29.97S
MINOT          MOCLDY    57  54  89 W3        29.94R
MINOT AFB      MOCLDY    54  53  98 SW6       29.93R
$$

NDZ018>021-031>035-040>046-290800-
SOUTHWEST NORTH DAKOTA

CITY           SKY/WX    TMP DP  RH WIND       PRES   REMARKS
BISMARCK       CLEAR     52  52 100 W6        29.96R
DICKINSON      CLEAR     47  46  97 W7        29.98R
GARRISON         N/A     52  50  93 NW7       29.95R
HETTINGER ARPT FOG       43  41  93 CALM      30.03R VSB 1/4
$$

NDZ004>008-012>016-024-026-027-054-290800-
NORTHEAST NORTH DAKOTA

CITY           SKY/WX    TMP DP  RH WIND       PRES   REMARKS
GRAND FORKS    CLOUDY    60  58  92 NW3       29.86S
GRND FRKS AFB  CLOUDY    60  60 100 NW3       29.87S
DEVILS LAKE    MOCLDY    58  57  97 N6        29.92S
$$

NDZ022-023-025-028>030-036>039-047>053-290800-
SOUTHEAST NORTH DAKOTA

CITY           SKY/WX    TMP DP  RH WIND       PRES   REMARKS
FARGO          CLOUDY    61  58  90 W6        29.86S
JAMESTOWN      CLEAR     56  56 100 CALM      29.90R
$$




USA.gov is the U.S. government's official web portal to all federal, state and local government web resources and services.